Date String (YYYY-MM-DD hh:mm:ss) UTC,Instrument flags,absolute air pressure of the measurement (hPa),sample flow rate (lpm),inlet stack bypass flow (lpm),air temperature of the measurement (°C),ambient temperature measured by the external sensor (°C),aerosol sample conditioner tube jacket temperature (°C),OPC LED temperature (°C),internal box temperature (°C),relative humidity of the measurement (%),span deviation,mass concentration of particles derived from Lorenz-Mie calculation of OPC scattering (μg/m³),mass concentration of particles derived from Lorenz-Mie calculation of OPC scattering (μg/m³),mass concentration of particles derived from Lorenz-Mie calculation of OPC scattering (μg/m³)
DateTimeUTC,F1_M11,P_M11,Q1_M11,Q2_M11,T1_M11,T2_M11,T3_M11,T4_M11,T5_M11,U1_M11,ZSPAN_M11,X2_M11,X0_M11,X1_M11
2024-01-24 11:00:00,SystemResetWarning,0825.9,5.01,000.00,021.9,020.9,000.0,030.4,023.3,18.4,0001.3,0009.99,0015.19,0009.27
2024-01-24 11:01:00,SystemResetWarning,0825.9,5.00,000.00,021.9,020.9,000.0,030.4,023.3,18.4,0001.0,0010.03,0015.39,0009.29
2024-01-24 11:02:00,SystemResetWarning,0825.8,5.00,000.00,021.9,020.9,000.0,030.3,023.3,18.4,0001.0,0010.03,0015.55,0009.28
2024-01-24 11:03:00,SystemResetWarning,0825.8,4.98,000.00,021.9,020.9,000.0,030.3,023.4,18.4,0001.0,0010.04,0016.16,0009.28
2024-01-24 11:04:00,SystemResetWarning,0825.8,4.99,000.00,021.9,020.9,000.0,030.3,023.3,18.4,0001.3,0010.05,0016.25,0009.27
2024-01-24 11:05:00,SystemResetWarning,0825.8,5.01,000.00,021.9,021.0,000.0,030.3,023.3,18.4,0001.7,0009.98,0016.06,0009.23
2024-01-24 11:06:00,SystemResetWarning,0825.9,5.01,000.00,021.9,021.0,000.0,030.4,023.3,18.3,0001.5,0009.92,0016.01,0009.22
2024-01-24 11:07:00,SystemResetWarning,0825.9,5.01,000.00,021.9,021.0,000.0,030.3,023.3,18.3,0001.5,0009.85,0016.26,0009.16
2024-01-24 11:08:00,SystemResetWarning,0825.9,4.99,000.00,022.0,021.0,000.0,030.3,023.3,18.3,0001.8,0009.78,0016.71,0009.07
2024-01-24 11:09:00,SystemResetWarning,0825.9,4.99,000.00,021.9,020.9,000.0,030.3,023.3,18.3,0002.0,0009.72,0016.60,0009.00
2024-01-24 11:10:00,SystemResetWarning,0825.9,5.00,000.00,021.9,020.9,000.0,030.3,023.3,18.3,0002.1,0009.67,0016.68,0008.95
2024-01-24 11:11:00,SystemResetWarning,0825.9,5.00,000.00,021.9,020.9,000.0,030.3,023.3,18.3,0002.1,0009.66,0016.34,0008.90
2024-01-24 11:12:00,SystemResetWarning,0825.9,5.00,000.00,021.9,020.9,000.0,030.3,023.3,18.3,0001.9,0009.59,0015.92,0008.86
2024-01-24 11:13:00,SystemResetWarning,0826.0,5.01,000.00,021.9,021.0,000.0,030.3,023.3,18.3,0002.5,0009.56,0015.87,0008.83
2024-01-24 11:14:00,SystemResetWarning,0825.9,5.01,000.00,021.9,021.0,000.0,030.3,023.3,18.3,0002.6,0009.49,0014.82,0008.77
2024-01-24 11:15:00,SystemResetWarning,0825.9,5.00,000.00,021.9,020.9,000.0,030.3,023.3,18.3,0002.6,0009.33,0014.56,0008.64
2024-01-24 11:16:00,SystemResetWarning,0825.9,4.99,000.00,021.9,020.9,000.0,030.3,023.2,18.3,0002.1,0009.21,0014.58,0008.53
2024-01-24 11:17:00,SystemResetWarning,0825.9,5.00,000.00,021.9,020.9,000.0,030.3,023.1,18.4,0002.0,0009.13,0014.63,0008.44
2024-01-24 11:18:00,SystemResetWarning,0825.9,4.99,000.00,021.9,020.9,000.0,030.3,023.1,18.4,0002.2,0009.09,0014.33,0008.39
2024-01-24 11:19:00,SystemResetWarning,0825.9,5.00,000.00,021.8,020.9,000.0,030.3,023.1,18.4,0002.4,0009.06,0013.95,0008.40
2024-01-24 11:20:00,SystemResetWarning,0825.9,5.00,000.00,021.8,020.8,000.0,030.3,023.1,18.4,0002.6,0009.02,0013.25,0008.38
2024-01-24 11:21:00,SystemResetWarning,0825.9,5.00,000.00,021.8,020.8,000.0,030.3,023.1,18.4,0002.6,0008.99,0012.89,0008.33
2024-01-24 11:22:00,SystemResetWarning,0825.9,5.00,000.00,021.8,020.8,000.0,030.2,023.1,18.4,0002.6,0008.86,0012.61,0008.24
2024-01-24 11:23:00,SystemResetWarning,0825.9,5.01,000.00,021.8,020.8,000.0,030.2,023.2,18.3,0002.8,0008.80,0012.61,0008.17
2024-01-24 11:24:00,SystemResetWarning,0825.9,5.01,000.00,021.8,020.8,000.0,030.2,023.2,18.2,0002.6,0008.75,0012.48,0008.11
2024-01-24 11:25:00,SystemResetWarning,0825.9,5.01,000.00,021.8,020.8,000.0,030.2,023.2,18.1,0002.5,0008.68,0012.40,0008.06
2024-01-24 11:26:00,SystemResetWarning,0825.9,5.00,000.00,021.8,020.9,000.0,030.2,023.2,18.2,0002.8,0008.66,0012.87,0008.06
2024-01-24 11:27:00,SystemResetWarning,0825.9,4.99,000.00,021.8,020.9,000.0,030.2,023.2,18.3,0003.0,0008.67,0012.86,0008.07
2024-01-24 11:28:00,SystemResetWarning,0825.9,4.99,000.00,021.8,020.9,000.0,030.2,023.2,18.3,0003.0,0008.69,0012.81,0008.08
2024-01-24 11:29:00,SystemResetWarning,0825.9,4.99,000.00,021.8,020.9,000.0,030.2,023.2,18.4,0002.7,0008.67,0012.70,0008.06
2024-01-24 11:30:00,SystemResetWarning,0825.9,5.01,000.00,021.8,020.9,000.0,030.2,023.2,18.4,0002.3,0008.62,0012.65,0008.03
2024-01-24 11:31:00,SystemResetWarning,0825.9,5.01,000.00,021.8,020.9,000.0,030.2,023.2,18.4,0002.0,0008.59,0012.74,0008.01
2024-01-24 11:32:00,SystemResetWarning,0825.9,5.00,000.00,021.8,020.9,000.0,030.2,023.1,18.4,0002.2,0008.54,0012.64,0007.98
2024-01-24 11:33:00,SystemResetWarning,0825.9,5.01,000.00,021.8,020.9,000.0,030.2,023.1,18.5,0002.2,0008.50,0012.55,0007.97
2024-01-24 11:34:00,SystemResetWarning,0826.0,4.99,000.00,021.8,020.8,000.0,030.2,023.1,18.6,0001.9,0008.47,0012.69,0007.94
2024-01-24 11:35:00,SystemResetWarning,0825.9,4.99,000.00,021.8,020.8,000.0,030.2,023.1,18.6,0002.0,0008.43,0012.93,0007.91
2024-01-24 11:36:00,SystemResetWarning,0826.0,5.00,000.00,021.8,020.8,000.0,030.2,023.1,18.7,0002.1,0008.40,0013.11,0007.89
2024-01-24 11:37:00,SystemResetWarning,0825.9,5.01,000.00,021.8,020.8,000.0,030.2,023.0,18.8,0001.9,0008.41,0012.82,0007.88
2024-01-24 11:38:00,SystemResetWarning,0826.0,5.01,000.00,021.8,020.8,000.0,030.2,023.0,18.8,0001.9,0008.42,0012.81,0007.87
2024-01-24 11:39:00,SystemResetWarning,0825.9,4.99,000.00,021.7,020.7,000.0,030.2,023.0,18.9,0002.0,0008.38,0012.73,0007.85
2024-01-24 11:40:00,SystemResetWarning,0825.9,4.99,000.00,021.7,020.7,000.0,030.1,023.0,18.8,0002.1,0008.35,0012.89,0007.84
2024-01-24 11:41:00,SystemResetWarning,0825.9,5.00,000.00,021.7,020.7,000.0,030.1,023.1,18.7,0002.4,0008.35,0012.98,0007.85
2024-01-24 11:42:00,SystemResetWarning,0825.9,5.00,000.00,021.7,020.7,000.0,030.1,023.1,18.5,0002.4,0008.37,0013.24,0007.85
2024-01-24 11:43:00,SystemResetWarning,0825.9,5.00,000.00,021.7,020.7,000.0,030.1,023.0,18.3,0002.1,0008.38,0013.59,0007.86
2024-01-24 11:44:00,SystemResetWarning,0825.9,5.00,000.00,021.7,020.7,000.0,030.1,023.0,18.3,0001.8,0008.45,0013.80,0007.87
2024-01-24 11:45:00,SystemResetWarning,0825.9,5.00,000.00,021.7,020.7,000.0,030.1,022.9,18.1,0002.0,0008.46,0013.72,0007.87
2024-01-24 11:46:00,SystemResetWarning,0825.8,5.01,000.00,021.7,020.7,000.0,030.1,023.0,18.0,0002.3,0008.42,0013.14,0007.84
2024-01-24 11:47:00,SystemResetWarning,0825.9,5.00,000.00,021.7,020.7,000.0,030.1,023.0,17.9,0002.6,0008.41,0012.97,0007.82
2024-01-24 11:48:00,SystemResetWarning,0825.9,5.00,000.00,021.7,020.7,000.0,030.1,023.0,18.1,0002.6,0008.35,0012.51,0007.80
2024-01-24 11:49:00,SystemResetWarning,0825.9,5.00,000.00,021.6,020.7,000.0,030.1,023.0,18.2,0002.7,0008.32,0012.40,0007.79
2024-01-24 11:50:00,SystemResetWarning,0825.9,4.99,000.00,021.6,020.7,000.0,030.1,023.0,18.4,0002.8,0008.34,0012.50,0007.79
2024-01-24 11:51:00,SystemResetWarning,0825.9,5.00,000.00,021.7,020.7,000.0,030.1,023.0,18.5,0002.9,0008.36,0012.35,0007.78
2024-01-24 11:52:00,SystemResetWarning,0825.9,5.00,000.00,021.7,020.7,000.0,030.1,023.0,18.5,0003.0,0008.36,0012.16,0007.79
2024-01-24 11:53:00,SystemResetWarning,0825.9,5.00,000.00,021.7,020.7,000.0,030.0,023.0,18.4,0003.2,0008.39,0011.83,0007.82
2024-01-24 11:54:00,SystemResetWarning,0825.9,5.00,000.00,021.6,020.7,000.0,030.0,023.0,18.4,0003.4,0008.42,0011.59,0007.88
2024-01-24 11:55:00,SystemResetWarning,0825.9,5.00,000.00,021.6,020.7,000.0,030.0,023.0,18.3,0003.7,0008.47,0011.54,0007.94
2024-01-24 11:56:00,SystemResetWarning,0825.9,5.00,000.00,021.6,020.7,000.0,030.0,023.0,18.3,0003.8,0008.49,0011.55,0007.98
2024-01-24 11:57:00,SystemResetWarning,0825.9,5.01,000.00,021.6,020.7,000.0,030.0,023.0,18.3,0003.6,0008.55,0012.16,0008.05
2024-01-24 11:58:00,SystemResetWarning,0825.9,5.01,000.00,021.6,020.7,000.0,030.0,023.0,18.4,0002.9,0008.62,0012.95,0008.12
2024-01-24 11:59:00,SystemResetWarning,0825.9,5.01,000.00,021.6,020.7,000.0,030.0,023.0,18.5,0002.9,0008.73,0013.38,0008.21
